Location: Unspecified
(17.4080°N, 0.0000°E)
Time: 16:32:40
(UTC+00:00)

ISS - Visible Passes

Search period start: 26 April 2019 00:00
Search period end: 06 May 2019 00:00
Orbit: 408 x 410 km, 51.6° (Epoch: 27 April)

Date Brightness Start Highest point End Pass type
(mag) Time Alt. Az. Time Alt. Az. Time Alt. Az.
26 Apr -0.7 03:28:13 15° ENE 03:28:13 15° ENE 03:28:59 10° ENE visible
26 Apr -1.5 05:01:12 10° WNW 05:02:43 13° NW 05:04:13 10° NNW visible
27 Apr -2.2 04:12:36 24° NNW 04:12:36 24° NNW 04:14:40 10° N visible
28 Apr -0.4 03:24:06 11° NNE 03:24:06 11° NNE 03:24:17 10° NNE visible
